Regional Weather Roundup
Issued by NWS

Home | Current Version | Previous Version | Graphics & Text | Print | Product List | Glossary On
Versions: 1 2 3 4 5 6 7 8 9 10 11 12 13 14 15 16 17 18 19 20 21 22 23 24 25 26 27 28 29 30 31 32 33 34 35 36 37 38 39 40 41 42 43 44 45 46 47 48 49 50
000
ASUS45 KCYS 280910
RWRWY

WYOMING REGIONAL WEATHER ROUNDUP
NATIONAL WEATHER SERVICE CHEYENNE WY
300 AM MDT WED JUN 28 2017

NOTE:  "FAIR" INDICATES FEW OR NO CLOUDS BELOW 12,000 FEET
WITH NO SIGNIFICANT WEATHER AND/OR OBSTRUCTIONS TO VISIBILITY.

WYZ001-281000-
YELLOWSTONE NATIONAL PARK

CITY           SKY/WX    TMP DP  RH WIND       PRES   REMARKS
LK YELLOWSTONE   N/A     39  39 100 CALM      30.08F
W YELLOWSTONE  NOT AVBL

$$
WYZ002>013-054>058-071-098>099-281000-
NORTHERN WYOMING

CITY           SKY/WX    TMP DP  RH WIND       PRES   REMARKS
JACKSON        FAIR      43  41  93 NW3       30.02F
CODY           FAIR      63  40  42 W8        29.89F
GREYBULL       FAIR      56  46  69 E5        29.84F
WORLAND        FAIR      48  43  82 SE6       29.87S
SHERIDAN       FAIR      50  46  86 CALM      29.84F
BUFFALO        FAIR      54  41  61 W9        29.89F
GILLETTE       FAIR      55  51  86 W10       29.85S
NEWCASTLE      FAIR      54  46  76 N10       29.85S

$$
WYZ014>020-022>026-101>103-281000-
CENTRAL WYOMING

CITY           SKY/WX    TMP DP  RH WIND       PRES   REMARKS
BIG PINEY      FAIR      40  35  83 N3        30.04F
PINEDALE       FAIR      41  39  93 NW3       30.05F
DUBOIS         FAIR      41  36  81 W10       30.04F
LANDER         FAIR      50  40  68 CALM      29.95F
RIVERTON       FAIR      53  40  61 W10       29.94F
CASPER         FAIR      47  40  76 SW7       29.94F
DOUGLAS        FAIR      49  43  80 N8        29.93S

$$
WYZ021-027>030-104>119-281000-
SOUTHERN WYOMING

CITY           SKY/WX    TMP DP  RH WIND       PRES   REMARKS
EVANSTON       FAIR      55  29  36 S6        30.05F
KEMMERER         N/A     46  32  57 NE3       30.07S
FORT BRIDGER   FAIR      54  30  40 S10       30.08S
ROCK SPRINGS   FAIR      55  32  41 SE6       30.02F
DIXON          FAIR      47  40  74 CALM      30.06S
RAWLINS        FAIR      40  36  86 CALM      30.04F
SARATOGA       FAIR      43  43 100 S6        30.07S
LARAMIE        FAIR      48  37  65 W6        30.06R
CHEYENNE       FAIR      57  39  51 NW5       29.98F
TORRINGTON     FAIR      53  45  74 W6        29.87R
PINE BLUFFS    FAIR      50  41  71 CALM      29.95R

$$



USA.gov is the U.S. government's official web portal to all federal, state and local government web resources and services.